Starlink 31632

operational
NORAD ID: 59326 Int'l Des: 2024-057 Owner: SPXS Country: US Constellation: starlink
LEOCIRCULAR

Über Starlink 31632

Beschreibung wird geladen...

Live-Position

3D-Globus wird geladen...

Nächste Überflüge

Höhenverlauf

Altitude vs Time

uPlot chart will show altitude changes over time

Zweizeiliger Elementsatz

1 59326U 24057G 25259.26854767 .00002351 00000-0 94879-4 0 9993
2 59326 43.0028 103.3615 0001090 269.0395 91.0331 15.27594130 83035
Epoch: 16. Sept. 2025 • Age: 14 hours

Aktueller Status

Höhe 484.0 km
Geschwindigkeit 7.62 km/s
Subsatellitenpunkt -8.29°S, 147.34°E
Startdatum 25. März 2024
Alter 1.4 years
Typ internet

Technische Details

Klassifizierung Payload
Masse 730.00 kg
Trockenmasse 700.00 kg
Gesamtmasse 730.00 kg
Länge 0.30 m
Durchmesser 4.10 m
Spannweite 29.00 m
Form Box + pan
Hersteller SPXS
Bus-Typ Starlink V2M
Phasenstatus In Orbit
Besitzer/Staat SPXS/US

Große Konstellationen

Loading constellations...